This is the latest recevied weather packets stored in our database for station/object KA1JKB. If no packets are shown the sender has not sent any weather packets the latest 10 day(s).
| Time | Temp. | Humidity | Pressure | Rain* | Wind** | Luminosity | Snow |
|---|---|---|---|---|---|---|---|
| 1788209558 | 23.89° C | 94% | 1014.3 hPa | 1.78 mm | - | 9 W/m² | - |
| 1788209258 | 23.89° C | 93% | 1014.6 hPa | 1.78 mm | - | 8 W/m² | - |
| 1788208957 | 24.44° C | 92% | 1014.2 hPa | 0 mm | - | 8 W/m² | - |
| 1788208656 | 25° C | 90% | 1014.9 hPa | 1.27 mm | - | 9 W/m² | - |
| 1788208351 | 25.56° C | 86% | 1015.2 hPa | 0 mm | - | 10 W/m² | - |
| 1788208050 | 25.56° C | 83% | 1015 hPa | 0 mm | - | 10 W/m² | - |
| 1788207745 | 26.11° C | 81% | 1015 hPa | 0 mm | - | 14 W/m² | - |
| 1788207445 | 26.11° C | 79% | 1014.8 hPa | 0 mm | - | 12 W/m² | - |
| 1788207144 | 26.67° C | 77% | 1014.3 hPa | 0 mm | - | 11 W/m² | - |
| 1788206840 | 27.22° C | 76% | 1014 hPa | 0 mm | - | 18 W/m² | - |
| 1788206540 | 27.22° C | 74% | 1013.8 hPa | 0 mm | - | 52 W/m² | - |
| 1788206236 | 27.22° C | 72% | 1013.7 hPa | 0 mm | - | 95 W/m² | - |
| 1788205932 | 27.78° C | 71% | 1013.8 hPa | 0 mm | - | 121 W/m² | - |
| 1788205626 | 28.33° C | 73% | 1013.6 hPa | 0 mm | - | 158 W/m² | - |
| 1788205322 | 28.33° C | 72% | 1013.6 hPa | 0 mm | - | 241 W/m² | - |
| 1788205015 | 28.89° C | 72% | 1013.7 hPa | 0 mm | - | 317 W/m² | - |
| 1788204711 | 28.89° C | 73% | 1013.6 hPa | 0 mm | - | 317 W/m² | - |
| 1788204406 | 28.89° C | 73% | 1013.8 hPa | 0 mm | - | 289 W/m² | - |
| 1788204101 | 28.89° C | 71% | 1013.7 hPa | 0 mm | - | 316 W/m² | - |
| 1788203797 | 28.89° C | 69% | 1013.5 hPa | 0 mm | - | 348 W/m² | - |
| 1788203493 | 28.89° C | 69% | 1013.9 hPa | 0 mm | - | 408 W/m² | - |
| 1788203188 | 29.44° C | 70% | 1014 hPa | 0 mm | - | 458 W/m² | - |
| 1788202887 | 30° C | 66% | 1014.1 hPa | 0 mm | - | 448 W/m² | - |
| 1788202582 | 30° C | 69% | 1013.9 hPa | 0 mm | - | 643 W/m² | - |
| 1788202278 | 30° C | 70% | 1013.9 hPa | 0 mm | - | 608 W/m² | - |
* Rain latest hour (hover to see other rain measurements)
** Current wind speed in m/s (hover to see current wind gust speed)